Weather observations for the past three days for
Gainesville, Gainesville Regional Airport
Imperial (Metric)
Date Time (edt) Wind (mph) Vis. (mi.) Weather Sky Cond. Temperature (ºF) Relative Humidity Wind Chill (°F) Heat Index (°F) Pressure Precipitation (in)
Air Dwpt 6 hour altimeter (in) sea level (mb) 1 hr 3 hr 6 hr
Max. Min.
16 11:53 Calm 10.00 Partly Cloudy FEW038 SCT055 89.1 73.9 61% 98 30.11 1019.3
16 10:53 Vrbl 5 10.00 A Few Clouds FEW028 87.1 77 72% 99 30.11 1019.3
16 09:53 Calm 10.00 Fair CLR 82.9 77 82% 92 30.1 1019.1
16 08:53 E 3 10.00 Fair CLR 79 75.9 90% 83 30.12 1019.6
16 07:53 Calm 10.00 Fair CLR 73.9 73.9 73.9 71.1 100% 30.1 1018.8
16 06:53 Calm 10.00 Fair CLR 71.1 71.1 100% 30.07 1018.0
16 05:53 Calm 10.00 Fair CLR 71.1 71.1 100% 30.05 1017.1
16 04:53 Calm 10.00 Fair CLR 72 72 100% 30.04 1017.0
16 03:53 Calm 10.00 Fair CLR 73.9 73 97% 30.05 1017.1
16 02:53 Calm 10.00 Fair CLR 73.9 73 97% 30.07 1018.1
16 01:53 Calm 10.00 Fair CLR 73.9 73.9 78.1 73.9 100% 30.09 1018.5
16 00:53 Calm 10.00 Fair CLR 73.9 73.9 100% 30.1 1018.7
15 23:53 NE 3 10.00 Fair CLR 75 75 100% 72 30.09 1018.4
15 22:53 Calm 10.00 Fair CLR 75.9 75 97% 75 30.07 1018.0
15 21:53 Calm 10.00 Fair CLR 77 75.9 96% 78 30.07 1018.1
15 20:53 SE 9 10.00 Fair CLR 77 75.9 96% 78 30.08 1018.1
15 19:53 Calm 10.00 Partly Cloudy FEW043 SCT100 78.1 75 80.1 75.9 90% 81 30.07 1017.8
15 18:53 E 3 10.00 Fair CLR 78.1 73.9 87% 81 30.06 1017.7
15 17:53 W 8 10.00 Fair CLR 78.1 75 90% 81 30.05 1017.3
15 16:53 Calm 10.00 Overcast FEW060 BKN095 OVC110 75.9 73.9 94% 75 30.07 1017.8
15 14:53 S 5 10.00 Thunderstorm BKN038 80.1 68 67% 83 30.1 1019.0
15 13:53 N 8 10.00 Thunderstorm NULL 79 66.9 91.9 77 67% 81 30.11 1019.5
15 12:53 Calm 10.00 Thunderstorm in Vicinity BKN040 BKN075 91 78.1 66% 106 30.11 1019.1
15 11:53 Vrbl 5 10.00 Partly Cloudy SCT036 90 78.1 68% 105 30.12 1019.7
15 10:53 Vrbl 3 10.00 Mostly Cloudy BKN030 87.1 75.9 70% 98 30.14 1020.3
15 09:53 Vrbl 3 10.00 Fair CLR 86 77 75% 97 30.15 1020.4
15 08:53 SW 3 10.00 Fair CLR 82 75 79% 89 30.15 1020.6
15 07:53 Calm 10.00 Fair CLR 75.9 72 75.9 72 88% 76 30.14 1020.3
15 06:53 Calm 10.00 Fair CLR 72 71.1 97% 30.12 1019.5
15 05:53 Calm 10.00 Fair CLR 73 71.1 94% 30.1 1019.1
15 04:53 Calm 10.00 Fair CLR 73 72 96% 30.1 1018.8
15 03:53 Calm 10.00 Fair CLR 73 72 96% 30.1 1018.8
15 02:53 Calm 10.00 Fair CLR 73 72 96% 30.11 1019.2
15 01:53 Calm 10.00 Fair CLR 75.9 73 81 75 91% 76 30.13 1019.9
15 00:53 SW 7 10.00 Fair CLR 77 73 88% 78 30.14 1020.3
14 23:53 SW 6 10.00 Fair CLR 78.1 73.9 87% 81 30.14 1020.4
14 22:53 S 9 10.00 Fair CLR 79 75 88% 83 30.14 1020.3
14 21:53 S 8 10.00 Fair CLR 80.1 73.9 82% 85 30.15 1020.4
14 20:53 SE 7 10.00 Fair CLR 80.1 73.9 82% 85 30.15 1020.5
14 19:53 E 5 10.00 Fair CLR 81 73.9 93.9 81 79% 86 30.12 1019.5
14 18:53 S 8 10.00 Fair CLR 81 73 77% 86 30.1 1019.1
14 17:53 SE 12 10.00 A Few Clouds FEW055 FEW070 82.9 73 72% 89 30.1 1019.0
14 16:53 SW 9 10.00 Fair CLR 86 75 70% 95 30.09 1018.7
14 15:53 Vrbl 3 10.00 Overcast OVC110 93 73.9 54% 103 30.1 1018.9
14 14:53 Vrbl 6 10.00 Partly Cloudy SCT085 91.9 73.9 56% 102 30.13 1019.9
14 13:53 Calm 10.00 A Few Clouds FEW055 93 72 93 78.1 50% 101 30.15 1020.6
14 12:53 Calm 10.00 Mostly Cloudy BKN044 89.1 73 59% 97 30.17 1021.2
14 11:53 Calm 10.00 Partly Cloudy FEW035 SCT055 89.1 73.9 61% 98 30.19 1021.8
14 10:53 W 3 10.00 Partly Cloudy FEW028 SCT038 87.1 75 67% 97 30.19 1021.8
14 09:53 Vrbl 6 10.00 A Few Clouds FEW020 84.9 78.1 80% 97 30.19 1021.7
14 08:53 SW 5 10.00 Fair CLR 82 77 85% 90 30.19 1021.8
14 07:53 Calm 10.00 Fair CLR 78.1 75.9 78.1 75 93% 81 30.19 1021.8
14 06:53 Calm 10.00 Fair CLR 75 75 100% 72 30.17 1021.3
14 05:53 W 3 10.00 A Few Clouds FEW085 75.9 75 97% 75 30.16 1021.0
14 04:53 SW 7 10.00 Mostly Cloudy BKN080 77 75 94% 78 30.17 1021.2
14 03:53 Vrbl 3 10.00 Mostly Cloudy BKN120 77 75 94% 78 30.17 1021.2
14 02:53 Calm 10.00 Partly Cloudy FEW090 SCT110 75.9 75 97% 75 30.18 1021.4
14 01:53 Calm 10.00 Fair CLR 77 75 88 75.9 94% 78 30.18 1021.6
14 00:53 Calm 10.00 Fair CLR 78.1 75 90% 81 30.19 1021.9
13 23:53 Calm 10.00 Fair CLR 79 73.9 85% 83 30.18 1021.6
13 22:53 S 3 10.00 Fair CLR 81 73.9 79% 86 30.18 1021.5
13 21:53 SW 5 10.00 Fair CLR 82.9 73.9 74% 89 30.17 1021.4
13 20:53 SE 7 10.00 Mostly Cloudy BKN075 BKN110 84.9 73 68% 92 30.18 1021.5
13 19:53 SW 8 10.00 Partly Cloudy SCT120 88 73 96.1 88 61% 96 30.17 1021.1
13 18:53 SW 12 10.00 Fair CLR 90 73 58% 98 30.16 1021.0
13 17:53 SW 10 10.00 Overcast FEW070 OVC085 90 73 58% 98 30.14 1020.3
13 16:53 W 6 10.00 Fair CLR 93 69.1 46% 98 30.14 1020.1
13 15:53 S 5 10.00 Mostly Cloudy BKN070 91.9 69.1 47% 97 30.15 1020.5
13 14:53 N 5 10.00 Fair CLR 95 70 44% 101 30.17 1021.1
13 13:53 Vrbl 3 10.00 Mostly Cloudy FEW065 BKN090 93.9 71.1 93.9 77 48% 101 30.18 1021.7
Date Time (edt) Wind (mph) Vis. (mi.) Weather Sky Cond. Air Dwpt Max. Min. Relative Humidity Wind Chill (°F) Heat Index (°F) altimeter (in) sea level (mb) 1 hr 3 hr 6 hr
6 hour
Temperature (ºF) Pressure Precipitation (in)